Temperature
21 20 20 20 19 19 18 18 17 17 16 16 15 15 14 14 14 13 13 13 13 13 13 13 13 13 13 13 13 13 13 14 14 14 14 15 15 15 15 16 16 16 16
21 20 20 20 19 19 19 18 17 17 16 16 15 15 14 14 14 13 13 13 13 13 12 12 12 12 12 13 13 13 13 13 13 14 14 14 14 15 15 15 16 16 16
21 21 20 20 19 19 19 18 18 17 16 16 15 15 14 14 14 13 13 13 13 13 12 12 12 12 12 12 12 13 13 13 13 13 14 14 14 15 15 15 15 16 16
21 21 20 20 20 19 19 18 18 17 16 16 15 15 15 14 14 13 13 13 13 12 12 12 12 12 12 12 12 13 13 13 13 13 13 14 14 14 14 15 15 15 16
21 21 21 21 20 20 19 18 18 17 16 16 15 15 14 14 14 13 13 13 13 12 12 12 12 12 12 12 12 12 13 13 13 13 13 13 14 14 14 14 15 15 15
21 21 21 20 20 20 19 18 18 17 17 16 15 15 15 14 14 13 13 13 13 13 13 12 12 12 12 12 12 12 12 13 13 13 13 13 14 14 14 14 14 15 15
22 21 21 21 20 20 19 19 18 17 17 16 16 15 15 14 14 13 13 13 13 13 13 13 12 12 12 12 12 12 12 12 13 13 13 13 13 14 14 14 14 14 14
22 22 21 21 21 20 19 19 18 18 17 16 16 15 15 14 14 13 13 13 13 13 13 13 12 12 12 12 12 12 12 12 12 13 13 13 13 13 13 14 14 14 14
21 22 21 21 21 20 20 19 18 18 17 17 16 15 15 14 14 14 13 13 13 13 13 13 13 13 13 13 13 12 12 12 12 13 13 13 13 13 13 13 14 14 14
21 21 21 21 21 20 20 19 18 18 17 17 16 15 15 14 14 14 13 13 13 13 13 13 13 13 13 13 13 13 12 12 12 12 13 13 13 13 13 13 13 14 14
20 20 20 20 20 20 19 19 18 18 17 17 16 15 15 14 14 14 13 13 13 13 13 13 13 13 13 13 13 13 13 13 12 12 13 13 13 13 13 13 13 13 13
19 20 20 20 19 19 19 19 18 18 17 17 16 16 15 14 14 14 13 13 13 13 13 13 13 13 13 13 13 13 13 13 13 13 13 13 13 13 13 13 13 13 13
19 19 19 19 19 19 19 18 18 18 17 17 16 16 15 15 14 14 14 13 13 13 13 13 13 13 13 13 13 13 13 13 13 13 13 13 13 13 13 13 13 13 13
18 18 19 18 18 18 18 18 18 17 17 16 16 16 15 15 15 14 14 13 13 13 13 13 13 13 13 13 13 13 13 13 13 13 13 13 13 13 13 13 13 13 13
17 18 18 18 18 18 18 18 18 17 17 16 16 16 16 15 15 14 14 14 13 13 13 13 13 13 13 13 13 13 13 13 13 13 13 13 13 13 13 13 13 13 13
16 17 17 17 18 18 18 18 18 17 17 16 16 16 15 15 15 14 14 14 14 13 13 13 13 13 13 13 13 13 13 13 13 13 13 13 13 13 13 13 13 13 13
15 16 16 17 17 17 17 17 17 17 17 16 16 15 15 15 15 15 14 14 14 14 13 13 13 13 13 13 13 13 13 13 13 13 13 13 13 13 13 13 13 13 13
15 15 15 16 16 17 17 17 17 16 16 16 16 15 15 15 15 15 14 14 14 14 14 13 13 13 13 13 13 13 13 13 13 13 13 13 13 12 12 13 13 13 13
14 14 15 15 16 16 16 16 16 16 16 16 16 16 15 15 15 15 15 15 14 14 14 14 13 13 13 13 13 13 13 13 12 12 12 12 12 12 12 12 13 13 12
14 14 14 14 15 15 15 15 15 15 15 15 15 15 15 15 15 15 15 15 14 14 14 14 14 13 13 13 13 13 13 13 12 12 12 12 12 12 12 12 12 12 12
13 14 14 14 14 14 14 14 14 14 14 14 15 15 15 15 15 15 15 14 14 14 14 14 14 14 13 13 13 13 13 12 12 12 12 12 12 12 12 12 12 12 12
13 13 13 13 13 13 13 13 13 13 14 14 14 14 15 15 15 15 15 14 14 14 14 14 14 14 13 13 13 13 13 12 12 12 12 12 12 12 12 11 11 11 11
12 12 12 12 12 12 12 12 13 13 13 13 14 14 14 14 14 14 14 14 14 14 14 14 14 14 14 13 13 13 13 12 12 12 12 12 12 11 11 11 11 11 11
11 11 11 11 11 11 11 11 12 12 12 12 13 13 13 14 14 14 14 14 14 14 14 14 14 14 14 14 13 13 13 12 12 12 11 11 11 11 11 11 11 11 10
10 10 10 11 11 11 11 11 11 11 11 12 12 12 13 13 13 13 14 14 14 14 14 14 14 14 14 14 14 13 13 12 12 12 11 11 11 11 11 10 10 10 10
10 10 10 10 10 10 10 10 10 10 10 10 11 11 12 12 12 13 13 13 13 14 14 14 14 14 14 14 13 13 12 12 12 11 11 11 11 10 10 10 10 10 10
Wind_Speed
6 6 7 7 7 6 6 6 6 4 3 2 1 1 1 1 1 2 2 3 3 3 2 2 2 2 1 2 1 0 1 1 0 1 2 2 2 1 1 1 0 0 1
5 6 7 7 8 8 8 7 6 5 4 3 2 2 1 1 2 2 2 3 3 3 2 2 2 2 1 2 1 0 0 1 0 1 1 1 3 2 1 1 0 1 1
10 9 8 8 8 9 9 8 7 6 5 3 2 2 2 2 2 2 2 3 4 4 3 2 2 2 1 1 2 1 1 1 1 1 2 2 2 1 2 2 1 1 1
9 8 9 9 10 10 8 7 7 6 5 4 3 3 2 2 3 2 3 4 4 3 3 2 2 2 1 2 2 1 1 2 1 0 0 1 2 2 0 2 2 1 1
9 10 10 10 9 8 7 7 6 6 5 5 5 4 3 2 2 2 3 3 3 3 3 3 2 2 2 2 2 1 1 2 2 1 1 1 1 1 2 0 2 2 2
7 8 7 7 6 6 6 6 7 6 5 5 5 5 5 3 2 2 3 3 3 3 4 3 2 2 2 2 2 1 2 2 2 1 1 2 2 1 2 2 0 1 2
6 7 8 9 8 9 8 8 8 7 6 6 6 6 5 5 4 4 3 3 3 3 4 3 3 2 2 2 1 1 1 2 2 2 2 2 2 2 2 2 1 0 1
5 7 8 9 9 9 9 9 9 8 7 6 6 5 5 4 4 4 3 3 3 4 4 3 3 3 2 1 0 1 1 1 2 2 2 1 1 1 2 3 3 1 1
5 6 6 8 9 9 10 10 10 8 7 7 6 5 5 4 4 4 3 3 3 3 3 3 3 3 2 1 0 1 1 0 1 1 2 1 1 1 1 2 3 3 2
5 4 4 5 7 7 7 7 8 9 7 7 6 5 5 5 4 3 4 4 4 3 2 2 2 2 2 1 0 1 1 1 1 1 2 1 1 1 1 2 2 2 3
5 4 4 3 3 4 5 6 7 7 7 7 6 6 5 5 4 4 4 4 3 3 2 2 2 2 1 1 0 1 1 1 1 1 2 1 1 1 1 2 2 2 2
5 4 4 2 1 3 4 6 6 7 7 7 6 6 5 4 4 4 4 3 3 3 2 2 2 2 1 1 1 1 1 1 1 1 1 1 1 1 1 2 2 2 2
7 6 5 4 3 3 3 5 6 7 7 6 7 6 6 6 6 6 5 4 3 3 2 1 2 2 2 1 1 1 1 2 2 2 2 2 2 2 2 2 2 2 2
7 7 6 5 4 3 3 4 6 6 7 7 7 8 8 8 7 6 5 4 4 3 3 2 3 2 2 2 1 1 1 1 1 1 2 2 3 3 3 2 3 2 3
11 9 7 6 5 5 4 4 4 5 6 7 9 10 8 7 6 6 5 4 4 4 3 3 2 2 2 2 2 2 2 1 1 0 0 1 3 4 3 3 3 3 3
11 11 9 8 7 6 6 5 4 4 5 8 9 8 7 7 7 7 6 5 5 4 3 3 3 3 3 3 4 4 2 2 1 1 1 1 1 1 2 4 4 5 4
11 11 10 8 7 7 5 5 5 3 3 6 7 7 7 8 8 7 6 7 6 5 4 4 4 4 5 5 5 5 4 3 2 2 1 0 0 1 1 2 2 2 4
11 11 11 10 8 6 6 5 4 2 3 5 6 6 7 8 8 7 8 8 6 6 6 5 5 5 5 7 6 6 4 3 2 2 2 2 1 1 3 3 2 2 1
8 8 8 8 8 8 7 6 4 3 3 5 6 7 7 8 8 9 10 8 7 7 6 5 6 6 6 7 7 6 4 3 3 2 2 2 2 3 4 4 3 2 1
8 9 9 8 9 9 7 6 6 5 6 7 7 7 7 8 9 10 10 7 7 8 7 7 7 7 7 8 9 8 4 4 3 2 2 3 3 3 4 4 4 3 1
8 9 8 8 9 8 6 6 6 7 9 8 7 6 7 8 9 8 7 7 8 7 7 7 7 7 8 8 10 10 6 6 4 3 3 2 4 4 5 5 4 4 4
8 8 8 9 9 7 6 7 8 9 8 7 7 7 7 7 7 7 7 7 8 8 8 7 6 6 6 8 9 12 11 9 6 5 4 3 5 5 4 4 5 6 6
8 8 8 9 9 7 6 8 10 10 9 8 8 8 7 7 6 6 7 6 7 8 8 8 8 7 5 6 10 11 12 12 7 5 6 6 6 5 4 5 6 6 4
8 8 8 9 10 9 8 9 10 9 8 9 9 8 7 7 6 6 6 7 8 8 9 9 9 7 6 6 6 6 7 9 7 5 6 7 7 5 5 5 4 3 4
8 7 8 9 11 10 10 9 9 9 9 9 9 8 7 7 6 7 7 9 9 10 10 10 10 9 10 12 14 11 8 8 8 7 4 3 3 4 3 3 3 3 4
9 9 9 10 11 11 11 10 8 8 9 9 9 7 7 6 6 6 6 9 9 12 14 13 12 11 12 13 17 16 15 14 16 9 5 5 5 6 5 5 4 3 3
Wind_Direction
222 191 181 166 158 162 167 175 173 170 149 128 127 130 275 302 319 309 316 323 325 329 320 309 314 321 304 284 279 256 315 316 292 48 358 339 328 336 294 255 174 228 252
202 191 179 174 176 178 181 183 186 182 181 175 171 184 202 256 270 294 313 321 325 324 313 301 294 293 290 307 308 266 155 321 65 124 101 358 351 350 354 350 74 285 258
205 198 190 190 185 189 191 192 194 193 189 170 122 80 46 13 352 329 314 317 321 318 310 295 283 282 263 270 275 240 173 213 291 117 143 151 206 309 348 2 359 344 321
205 200 196 196 199 200 192 191 192 191 189 173 167 169 178 217 249 266 284 306 314 316 315 306 290 281 265 260 263 227 197 170 208 282 73 160 168 150 24 348 351 1 340
207 206 204 205 203 193 187 190 188 194 190 183 183 182 196 222 262 288 297 309 316 315 313 313 307 294 274 262 257 233 197 186 179 179 169 108 70 102 146 137 345 356 339
214 213 209 200 197 187 185 185 189 201 194 190 192 193 201 215 249 284 293 304 311 311 315 318 315 299 281 270 257 230 200 198 184 180 168 159 154 171 151 166 203 332 325
212 210 204 200 197 194 193 189 192 205 198 195 203 206 209 208 222 244 255 276 294 299 305 316 308 301 288 280 251 212 206 197 190 191 196 192 190 168 155 151 161 143 331
231 224 216 209 205 202 197 192 197 206 198 199 210 211 211 210 225 233 234 245 255 268 282 294 298 302 303 298 243 228 237 195 196 203 189 187 203 173 166 162 149 127 26
269 248 233 217 210 205 201 197 199 204 202 203 205 209 212 213 225 236 234 244 256 267 276 291 303 310 315 313 182 208 245 187 188 190 184 181 201 184 184 167 160 154 156
314 289 260 236 221 212 208 199 199 203 204 200 203 206 210 216 221 227 241 251 262 269 284 299 309 318 326 323 170 175 210 165 194 186 166 169 185 180 169 168 168 163 159
322 317 302 276 243 219 205 204 206 206 204 203 204 206 211 214 216 224 238 244 254 263 267 276 294 303 313 315 234 219 192 161 183 176 168 186 177 166 168 162 153 154 151
333 337 339 345 312 243 224 215 212 210 211 204 202 209 210 207 213 227 238 236 246 257 256 264 280 284 288 287 235 236 196 181 190 193 168 189 167 164 171 164 160 162 164
2 1 2 355 327 290 254 235 223 219 214 201 201 209 211 209 217 226 230 230 235 250 259 253 258 264 273 266 244 209 198 200 207 201 187 195 167 176 173 161 159 164 154
6 4 353 338 321 304 278 256 242 224 210 202 205 211 215 214 218 222 221 222 222 228 240 245 252 254 256 250 235 190 179 180 200 197 190 195 194 195 185 174 174 158 137
1 352 341 332 327 325 310 287 268 241 215 205 212 221 219 214 214 218 219 218 218 225 226 231 255 258 243 230 207 193 174 162 153 108 218 213 206 200 189 181 177 159 149
351 346 339 334 329 320 313 301 287 263 222 216 223 226 217 214 215 217 214 213 220 226 220 222 232 244 241 227 201 178 173 172 177 218 273 285 278 200 186 183 178 175 171
344 343 336 326 314 308 302 295 285 280 236 231 233 226 217 219 221 217 210 214 217 215 219 225 221 233 245 234 211 188 168 176 193 210 231 269 24 141 126 122 123 158 181
344 340 337 331 323 315 313 305 301 293 259 245 244 234 222 225 223 213 216 219 212 209 216 222 220 225 241 231 215 195 172 178 198 208 208 209 247 190 153 127 100 79 65
331 327 326 327 330 331 327 325 316 304 291 268 257 244 227 228 223 219 221 218 208 212 213 214 212 217 238 233 216 192 166 184 207 215 211 203 215 216 163 139 136 110 53
335 336 336 340 343 338 336 331 321 310 293 283 270 261 237 229 228 226 223 215 209 214 211 214 212 213 226 230 217 195 173 186 202 210 227 223 207 205 173 156 154 162 185
332 337 341 341 334 331 335 327 320 304 292 292 283 267 250 240 236 229 222 211 208 208 210 215 217 216 221 227 219 199 185 191 190 199 212 225 204 183 171 162 169 184 159
336 337 339 335 332 332 331 322 311 304 306 299 287 273 259 249 246 229 223 212 203 205 211 215 223 224 223 220 221 207 198 190 185 198 202 201 180 163 156 161 163 152 134
330 330 329 328 330 329 324 312 308 314 315 309 295 282 272 255 245 230 222 212 205 208 213 211 220 226 218 219 217 208 199 190 185 190 183 173 157 143 133 132 140 137 130
321 323 326 327 324 322 313 306 309 313 312 307 302 292 280 269 252 240 228 217 212 213 214 214 218 219 211 210 206 200 195 186 180 171 157 142 130 119 116 108 109 115 134
312 314 315 313 312 314 311 311 315 317 313 308 303 298 284 271 257 244 236 230 226 217 214 218 212 206 215 215 197 186 187 182 174 150 131 130 133 132 119 105 98 101 115
311 310 309 307 308 311 310 308 309 312 312 312 308 300 291 281 265 254 263 255 247 239 229 220 211 216 214 200 191 190 186 175 164 151 161 170 170 169 166 155 141 128 131
Height
1499 1502 1504 1506 1508 1509 1511 1512 1513 1513 1513 1512 1511 1510 1509 1509 1508 1507 1506 1504 1503 1502 1500 1499 1498 1497 1497 1496 1495 1495 1495 1495 1495 1496 1496 1497 1498 1499 1500 1501 1503 1505 1507
1497 1499 1502 1504 1505 1507 1509 1511 1511 1512 1511 1511 1510 1509 1509 1508 1507 1506 1505 1503 1502 1501 1500 1498 1497 1496 1495 1494 1494 1493 1493 1493 1494 1494 1495 1496 1497 1497 1498 1499 1501 1503 1505
1494 1497 1499 1501 1503 1505 1507 1509 1510 1510 1510 1510 1509 1509 1508 1507 1506 1505 1504 1503 1501 1500 1499 1497 1496 1495 1494 1493 1492 1492 1492 1492 1492 1493 1494 1495 1494 1495 1496 1497 1499 1501 1503
1492 1495 1497 1499 1501 1503 1506 1507 1508 1509 1509 1509 1508 1507 1507 1506 1505 1504 1503 1502 1500 1499 1498 1496 1495 1494 1493 1492 1491 1491 1490 1491 1491 1491 1492 1494 1494 1494 1495 1496 1497 1499 1501
1491 1493 1495 1497 1499 1502 1504 1505 1507 1507 1507 1507 1507 1506 1505 1505 1504 1503 1502 1501 1499 1498 1497 1495 1494 1493 1492 1491 1490 1489 1489 1489 1490 1490 1491 1492 1493 1493 1494 1495 1496 1497 1499
1489 1491 1494 1496 1498 1500 1502 1503 1504 1505 1505 1505 1505 1505 1504 1503 1503 1502 1501 1500 1498 1497 1496 1495 1493 1492 1491 1490 1489 1488 1488 1488 1488 1489 1490 1490 1491 1492 1493 1494 1495 1496 1498
1488 1490 1492 1493 1495 1497 1499 1501 1502 1503 1503 1504 1503 1503 1503 1502 1501 1501 1500 1499 1497 1496 1495 1494 1492 1491 1490 1489 1488 1488 1487 1487 1487 1488 1488 1489 1490 1491 1492 1493 1494 1495 1496
1488 1489 1490 1492 1493 1495 1497 1498 1499 1500 1501 1502 1502 1502 1501 1501 1500 1499 1499 1498 1497 1496 1494 1493 1492 1491 1490 1489 1488 1487 1487 1486 1486 1487 1487 1488 1489 1490 1491 1492 1493 1494 1495
1487 1487 1488 1490 1491 1492 1494 1495 1497 1498 1499 1499 1500 1500 1499 1499 1499 1498 1497 1497 1496 1495 1494 1493 1491 1490 1489 1488 1487 1487 1486 1486 1486 1486 1486 1487 1487 1488 1489 1491 1492 1493 1493
1487 1487 1487 1488 1489 1490 1492 1493 1494 1495 1496 1497 1497 1497 1498 1497 1497 1497 1496 1495 1495 1494 1493 1492 1491 1490 1489 1488 1487 1487 1486 1486 1485 1485 1485 1486 1487 1487 1488 1489 1490 1491 1493
1487 1486 1486 1487 1487 1488 1489 1490 1492 1493 1494 1494 1495 1495 1495 1496 1495 1495 1495 1494 1494 1493 1492 1491 1490 1489 1489 1488 1487 1486 1486 1485 1485 1485 1485 1485 1486 1487 1487 1488 1489 1490 1491
1488 1487 1486 1486 1486 1486 1487 1488 1489 1490 1491 1492 1492 1493 1493 1493 1493 1493 1493 1493 1492 1492 1491 1490 1490 1489 1488 1488 1487 1486 1485 1485 1485 1485 1485 1485 1485 1486 1487 1487 1488 1488 1489
1488 1487 1486 1485 1485 1485 1485 1486 1486 1487 1488 1489 1489 1490 1490 1491 1491 1491 1491 1491 1490 1490 1490 1489 1489 1488 1488 1487 1486 1486 1485 1485 1484 1484 1484 1484 1485 1485 1486 1486 1487 1487 1488
1489 1488 1486 1485 1484 1484 1484 1484 1484 1484 1485 1485 1486 1486 1487 1488 1488 1488 1489 1489 1488 1488 1488 1488 1487 1487 1487 1486 1486 1485 1485 1484 1484 1484 1484 1484 1484 1484 1485 1485 1486 1486 1487
1490 1489 1487 1485 1484 1483 1482 1482 1481 1481 1481 1481 1482 1482 1484 1485 1485 1486 1486 1486 1486 1486 1486 1486 1486 1485 1485 1485 1485 1485 1484 1484 1483 1483 1483 1483 1483 1483 1483 1484 1484 1485 1486
1491 1490 1488 1486 1484 1482 1481 1480 1479 1479 1478 1478 1478 1479 1480 1481 1482 1482 1483 1483 1483 1483 1483 1483 1483 1483 1483 1483 1483 1483 1483 1483 1483 1482 1482 1482 1482 1482 1482 1483 1483 1484 1485
1492 1490 1487 1485 1483 1482 1480 1478 1477 1476 1475 1475 1475 1475 1476 1477 1477 1478 1479 1479 1480 1480 1480 1481 1481 1481 1481 1481 1482 1482 1482 1482 1482 1481 1481 1481 1481 1481 1481 1482 1482 1483 1483
1492 1489 1487 1484 1482 1480 1478 1477 1475 1473 1472 1472 1471 1471 1471 1472 1473 1473 1474 1475 1476 1476 1477 1477 1478 1478 1478 1479 1479 1480 1480 1480 1480 1480 1480 1480 1480 1480 1480 1481 1481 1482 1482
1493 1490 1487 1483 1480 1478 1476 1474 1472 1470 1469 1468 1467 1467 1467 1467 1467 1468 1469 1470 1471 1472 1472 1473 1474 1474 1475 1476 1476 1477 1477 1477 1478 1478 1478 1478 1478 1479 1479 1480 1480 1480 1481
1492 1488 1485 1481 1478 1475 1473 1471 1468 1466 1465 1464 1463 1463 1462 1462 1462 1462 1463 1464 1465 1466 1468 1468 1470 1470 1471 1472 1473 1473 1474 1474 1474 1475 1475 1476 1477 1477 1477 1478 1478 1479 1479
1489 1486 1483 1479 1476 1473 1470 1467 1465 1463 1461 1460 1458 1457 1457 1457 1456 1456 1457 1458 1459 1461 1462 1463 1464 1465 1466 1467 1468 1469 1469 1470 1471 1472 1473 1473 1474 1475 1475 1476 1476 1477 1478
1486 1483 1480 1477 1474 1471 1468 1464 1462 1459 1457 1455 1453 1452 1451 1451 1450 1450 1451 1452 1453 1454 1455 1457 1458 1459 1461 1462 1463 1464 1465 1466 1467 1468 1469 1470 1471 1472 1473 1473 1474 1475 1476
1484 1481 1477 1474 1471 1468 1465 1461 1458 1455 1452 1450 1447 1446 1445 1444 1444 1444 1444 1445 1446 1447 1448 1449 1451 1453 1455 1456 1458 1459 1460 1461 1463 1464 1465 1467 1468 1469 1470 1471 1472 1472 1473
1481 1478 1475 1471 1468 1465 1462 1458 1455 1451 1448 1445 1442 1440 1439 1437 1437 1437 1437 1438 1438 1439 1440 1442 1443 1445 1447 1449 1451 1453 1455 1456 1458 1460 1461 1463 1464 1465 1466 1468 1469 1470 1471
1478 1475 1472 1468 1464 1461 1457 1454 1451 1447 1443 1440 1437 1434 1433 1431 1429 1429 1430 1430 1431 1432 1433 1434 1436 1438 1440 1442 1445 1446 1448 1450 1453 1455 1457 1458 1460 1461 1462 1464 1465 1466 1468
1475 1471 1468 1464 1461 1457 1453 1450 1446 1443 1439 1435 1431 1429 1426 1425 1423 1422 1421 1422 1423 1424 1426 1427 1429 1431 1433 1436 1438 1440 1443 1445 1448 1450 1451 1453 1455 1457 1458 1460 1461 1463 1464